Year,Month,Day,Hour,Minute,Value (Times are PST for temperature in C)
2014,09,15,00,00,14.60
2014,09,15,00,01,14.60
2014,09,15,00,02,14.60
2014,09,15,00,03,14.60
2014,09,15,00,04,14.60
2014,09,15,00,05,14.60
2014,09,15,00,06,14.60
2014,09,15,00,07,14.60
2014,09,15,00,08,14.60
2014,09,15,00,09,14.60
2014,09,15,00,10,14.60
2014,09,15,00,11,14.60
2014,09,15,00,12,14.60
2014,09,15,00,13,14.60
2014,09,15,00,14,14.60
2014,09,15,00,15,14.60
2014,09,15,00,16,14.50
2014,09,15,00,17,14.50
2014,09,15,00,18,14.50
2014,09,15,00,19,14.50
2014,09,15,00,20,14.50
2014,09,15,00,21,14.50
2014,09,15,00,22,14.50
2014,09,15,00,23,14.60
2014,09,15,00,24,14.60
2014,09,15,00,25,14.60
2014,09,15,00,26,14.60
2014,09,15,00,27,14.60
2014,09,15,00,28,14.60
2014,09,15,00,29,14.60
2014,09,15,00,30,14.60
2014,09,15,00,31,14.60
2014,09,15,00,32,14.60
2014,09,15,00,33,14.60
2014,09,15,00,34,14.60
2014,09,15,00,35,14.60
2014,09,15,00,36,14.60
2014,09,15,00,37,14.50
2014,09,15,00,38,14.50
2014,09,15,00,39,14.50
2014,09,15,00,40,14.50
2014,09,15,00,41,14.50
2014,09,15,00,42,14.40
2014,09,15,00,43,14.40
2014,09,15,00,44,14.40
2014,09,15,00,45,14.40
2014,09,15,00,46,14.40
2014,09,15,00,47,14.40
2014,09,15,00,48,14.40
2014,09,15,00,49,14.40
2014,09,15,00,50,14.40
2014,09,15,00,51,14.40
2014,09,15,00,52,14.40
2014,09,15,00,53,14.40
2014,09,15,00,54,14.40
2014,09,15,00,55,14.40
2014,09,15,00,56,14.30
2014,09,15,00,57,14.30
2014,09,15,00,58,14.30
2014,09,15,00,59,14.30
2014,09,15,01,00,14.40
2014,09,15,01,01,14.40
2014,09,15,01,02,14.40
2014,09,15,01,03,14.40
2014,09,15,01,04,14.40
2014,09,15,01,05,14.40
2014,09,15,01,06,14.50
2014,09,15,01,07,14.50
2014,09,15,01,08,14.50
2014,09,15,01,09,14.50
2014,09,15,01,10,14.50
2014,09,15,01,11,14.50
2014,09,15,01,12,14.60
2014,09,15,01,13,14.60
2014,09,15,01,14,14.60
2014,09,15,01,15,14.70
2014,09,15,01,16,14.70
2014,09,15,01,17,14.70
2014,09,15,01,18,14.80
2014,09,15,01,19,14.80
2014,09,15,01,20,14.80
2014,09,15,01,21,14.80
2014,09,15,01,22,14.80
2014,09,15,01,23,14.80
2014,09,15,01,24,14.70
2014,09,15,01,25,14.70
2014,09,15,01,26,14.70
2014,09,15,01,27,14.70
2014,09,15,01,28,14.70
2014,09,15,01,29,14.70
2014,09,15,01,30,14.70
2014,09,15,01,31,14.70
2014,09,15,01,32,14.70
2014,09,15,01,33,14.70
2014,09,15,01,34,14.70
2014,09,15,01,35,14.70
2014,09,15,01,36,14.60
2014,09,15,01,37,14.60
2014,09,15,01,38,14.60
2014,09,15,01,39,14.60
2014,09,15,01,40,14.60
2014,09,15,01,41,14.60
2014,09,15,01,42,14.60
2014,09,15,01,43,14.60
2014,09,15,01,44,14.50
2014,09,15,01,45,14.50
2014,09,15,01,46,14.50
2014,09,15,01,47,14.50
2014,09,15,01,48,14.50
2014,09,15,01,49,14.50
2014,09,15,01,50,14.50
2014,09,15,01,51,14.40
2014,09,15,01,52,14.40
2014,09,15,01,53,14.40
2014,09,15,01,54,14.30
2014,09,15,01,55,14.30
2014,09,15,01,56,14.30
2014,09,15,01,57,14.20
2014,09,15,01,58,14.20
2014,09,15,01,59,14.20
2014,09,15,02,00,14.20
2014,09,15,02,01,14.20
2014,09,15,02,02,14.20
2014,09,15,02,03,14.10
2014,09,15,02,04,14.10
2014,09,15,02,05,14.10
2014,09,15,02,06,14.00
2014,09,15,02,07,14.00
2014,09,15,02,08,14.00
2014,09,15,02,09,14.00
2014,09,15,02,10,14.00
2014,09,15,02,11,13.90
2014,09,15,02,12,13.90
2014,09,15,02,13,13.90
2014,09,15,02,14,13.90
2014,09,15,02,15,13.80
2014,09,15,02,16,13.80
2014,09,15,02,17,13.80
2014,09,15,02,18,13.80
2014,09,15,02,19,13.80
2014,09,15,02,20,13.70
2014,09,15,02,21,13.70
2014,09,15,02,22,13.70
2014,09,15,02,23,13.70
2014,09,15,02,24,13.70
2014,09,15,02,25,13.70
2014,09,15,02,26,13.70
2014,09,15,02,27,13.70
2014,09,15,02,28,13.70
2014,09,15,02,29,13.70
2014,09,15,02,30,13.70
2014,09,15,02,31,13.70
2014,09,15,02,32,13.70
2014,09,15,02,33,13.70
2014,09,15,02,34,13.70
2014,09,15,02,35,13.70
2014,09,15,02,36,13.60
2014,09,15,02,37,13.60
2014,09,15,02,38,13.60
2014,09,15,02,39,13.60
2014,09,15,02,40,13.60
2014,09,15,02,41,13.60
2014,09,15,02,42,13.60
2014,09,15,02,43,13.60
2014,09,15,02,44,13.60
2014,09,15,02,45,13.60
2014,09,15,02,46,13.60
2014,09,15,02,47,13.60
2014,09,15,02,48,13.60
2014,09,15,02,49,13.60
2014,09,15,02,50,13.60
2014,09,15,02,51,13.60
2014,09,15,02,52,13.60
2014,09,15,02,53,13.60
2014,09,15,02,54,13.60
2014,09,15,02,55,13.60
2014,09,15,02,56,13.60
2014,09,15,02,57,13.60
2014,09,15,02,58,13.60
2014,09,15,02,59,13.60
2014,09,15,03,00,13.60
2014,09,15,03,01,13.70
2014,09,15,03,02,13.70
2014,09,15,03,03,13.80
2014,09,15,03,04,13.80
2014,09,15,03,05,13.90
2014,09,15,03,06,14.00
2014,09,15,03,07,14.10
2014,09,15,03,08,14.20
2014,09,15,03,09,14.20
2014,09,15,03,10,14.30
2014,09,15,03,11,14.30
2014,09,15,03,12,14.30
2014,09,15,03,13,14.30
2014,09,15,03,14,14.30
2014,09,15,03,15,14.30
2014,09,15,03,16,14.20
2014,09,15,03,17,14.20
2014,09,15,03,18,14.20
2014,09,15,03,19,14.20
2014,09,15,03,20,14.20
2014,09,15,03,21,14.20
2014,09,15,03,22,14.30
2014,09,15,03,23,14.30
2014,09,15,03,24,14.40
2014,09,15,03,25,14.40
2014,09,15,03,26,14.50
2014,09,15,03,27,14.50
2014,09,15,03,28,14.60
2014,09,15,03,29,14.60
2014,09,15,03,30,14.60
2014,09,15,03,31,14.60
2014,09,15,03,32,14.60
2014,09,15,03,33,14.70
2014,09,15,03,34,14.70
2014,09,15,03,35,14.70
2014,09,15,03,36,14.70
2014,09,15,03,37,14.70
2014,09,15,03,38,14.60
2014,09,15,03,39,14.60
2014,09,15,03,40,14.60
2014,09,15,03,41,14.50
2014,09,15,03,42,14.50
2014,09,15,03,43,14.40
2014,09,15,03,44,14.30
2014,09,15,03,45,14.30
2014,09,15,03,46,14.20
2014,09,15,03,47,14.20
2014,09,15,03,48,14.20
2014,09,15,03,49,14.20
2014,09,15,03,50,14.10
2014,09,15,03,51,14.10
2014,09,15,03,52,14.00
2014,09,15,03,53,14.00
2014,09,15,03,54,14.00
2014,09,15,03,55,14.00
2014,09,15,03,56,14.00
2014,09,15,03,57,14.00
2014,09,15,03,58,13.90
2014,09,15,03,59,13.90
2014,09,15,04,00,13.90
2014,09,15,04,01,13.80
2014,09,15,04,02,13.80
2014,09,15,04,03,13.80
2014,09,15,04,04,13.70
2014,09,15,04,05,13.70
2014,09,15,04,06,13.70
2014,09,15,04,07,13.70
2014,09,15,04,08,13.70
2014,09,15,04,09,13.70
2014,09,15,04,10,13.70
2014,09,15,04,11,13.70
2014,09,15,04,12,13.70
2014,09,15,04,13,13.70
2014,09,15,04,14,13.70
2014,09,15,04,15,13.60
2014,09,15,04,16,13.60
2014,09,15,04,17,13.60
2014,09,15,04,18,13.50
2014,09,15,04,19,13.50
2014,09,15,04,20,13.50
2014,09,15,04,21,13.50
2014,09,15,04,22,13.50
2014,09,15,04,23,13.50
2014,09,15,04,24,13.50
2014,09,15,04,25,13.40
2014,09,15,04,26,13.40
2014,09,15,04,27,13.40
2014,09,15,04,28,13.40
2014,09,15,04,29,13.40
2014,09,15,04,30,13.40
2014,09,15,04,31,13.40
2014,09,15,04,32,13.40
2014,09,15,04,33,13.40
2014,09,15,04,34,13.40
2014,09,15,04,35,13.30
2014,09,15,04,36,13.30
2014,09,15,04,37,13.30
2014,09,15,04,38,13.30
2014,09,15,04,39,13.30
2014,09,15,04,40,13.30
2014,09,15,04,41,13.30
2014,09,15,04,42,13.30
2014,09,15,04,43,13.30
2014,09,15,04,44,13.30
2014,09,15,04,45,13.30
2014,09,15,04,46,13.30
2014,09,15,04,47,13.30
2014,09,15,04,48,13.30
2014,09,15,04,49,13.30
2014,09,15,04,50,13.30
2014,09,15,04,51,13.30
2014,09,15,04,52,13.30
2014,09,15,04,53,13.30
2014,09,15,04,54,13.30
2014,09,15,04,55,13.30
2014,09,15,04,56,13.30
2014,09,15,04,57,13.30
2014,09,15,04,58,13.30
2014,09,15,04,59,13.30
2014,09,15,05,00,13.30
2014,09,15,05,01,13.30
2014,09,15,05,02,13.30
2014,09,15,05,03,13.30
2014,09,15,05,04,13.30
2014,09,15,05,05,13.30
2014,09,15,05,06,13.30
2014,09,15,05,07,13.30
2014,09,15,05,08,13.30
2014,09,15,05,09,13.30
2014,09,15,05,10,13.30
2014,09,15,05,11,13.30
2014,09,15,05,12,13.30
2014,09,15,05,13,13.30
2014,09,15,05,14,13.30
2014,09,15,05,15,13.30
2014,09,15,05,16,13.30
2014,09,15,05,17,13.30
2014,09,15,05,18,13.30
2014,09,15,05,19,13.40
2014,09,15,05,20,13.40
2014,09,15,05,21,13.40
2014,09,15,05,22,13.30
2014,09,15,05,23,13.40
2014,09,15,05,24,13.40
2014,09,15,05,25,13.40
2014,09,15,05,26,13.40
2014,09,15,05,27,13.40
2014,09,15,05,28,13.40
2014,09,15,05,29,13.40
2014,09,15,05,30,13.40
2014,09,15,05,31,13.50
2014,09,15,05,32,13.50
2014,09,15,05,33,13.50
2014,09,15,05,34,13.50
2014,09,15,05,35,13.50
2014,09,15,05,36,13.50
2014,09,15,05,37,13.50
2014,09,15,05,38,13.50
2014,09,15,05,39,13.50
2014,09,15,05,40,13.50
2014,09,15,05,41,13.50
2014,09,15,05,42,13.50
2014,09,15,05,43,13.50
2014,09,15,05,44,13.50
2014,09,15,05,45,13.50
2014,09,15,05,46,13.50
2014,09,15,05,47,13.40
2014,09,15,05,48,13.40
2014,09,15,05,49,13.40
2014,09,15,05,50,13.40
2014,09,15,05,51,13.40
2014,09,15,05,52,13.40
2014,09,15,05,53,13.40
2014,09,15,05,54,13.40
2014,09,15,05,55,13.40
2014,09,15,05,56,13.40
2014,09,15,05,57,13.40
2014,09,15,05,58,13.40
2014,09,15,05,59,13.40
2014,09,15,06,00,13.40
2014,09,15,06,01,13.40
2014,09,15,06,02,13.30
2014,09,15,06,03,13.30
2014,09,15,06,04,13.30
2014,09,15,06,05,13.30
2014,09,15,06,06,13.30
2014,09,15,06,07,13.30
2014,09,15,06,08,13.30
2014,09,15,06,09,13.30
2014,09,15,06,10,13.30
2014,09,15,06,11,13.30
2014,09,15,06,12,13.30
2014,09,15,06,13,13.30
2014,09,15,06,14,13.30
2014,09,15,06,15,13.40
2014,09,15,06,16,13.40
2014,09,15,06,17,13.40
2014,09,15,06,18,13.40
2014,09,15,06,19,13.40
2014,09,15,06,20,13.50
2014,09,15,06,21,13.50
2014,09,15,06,22,13.60
2014,09,15,06,23,13.60
2014,09,15,06,24,13.60
2014,09,15,06,25,13.60
2014,09,15,06,26,13.60
2014,09,15,06,27,13.60
2014,09,15,06,28,13.60
2014,09,15,06,29,13.50
2014,09,15,06,30,13.50
2014,09,15,06,31,13.50
2014,09,15,06,32,13.40
2014,09,15,06,33,13.40
2014,09,15,06,34,13.30
2014,09,15,06,35,13.30
2014,09,15,06,36,13.30
2014,09,15,06,37,13.20
2014,09,15,06,38,13.20
2014,09,15,06,39,13.20
2014,09,15,06,40,13.10
2014,09,15,06,41,13.10
2014,09,15,06,42,13.00
2014,09,15,06,43,13.00
2014,09,15,06,44,12.90
2014,09,15,06,45,12.90
2014,09,15,06,46,12.90
2014,09,15,06,47,12.80
2014,09,15,06,48,12.80
2014,09,15,06,49,12.80
2014,09,15,06,50,12.80
2014,09,15,06,51,12.80
2014,09,15,06,52,12.70
2014,09,15,06,53,12.70
2014,09,15,06,54,12.70
2014,09,15,06,55,12.70
2014,09,15,06,56,12.60
2014,09,15,06,57,12.60
2014,09,15,06,58,12.60
2014,09,15,06,59,12.60
2014,09,15,07,00,12.50
2014,09,15,07,01,12.50
2014,09,15,07,02,12.50
2014,09,15,07,03,12.50
2014,09,15,07,04,12.50
2014,09,15,07,05,12.50
2014,09,15,07,06,12.50
2014,09,15,07,07,12.50
2014,09,15,07,08,12.50
2014,09,15,07,09,12.40
2014,09,15,07,10,12.40
2014,09,15,07,11,12.40
2014,09,15,07,12,12.50
2014,09,15,07,13,12.50
2014,09,15,07,14,12.50
2014,09,15,07,15,12.50
2014,09,15,07,16,12.50
2014,09,15,07,17,12.50
2014,09,15,07,18,12.50
2014,09,15,07,19,12.50
2014,09,15,07,20,12.50
2014,09,15,07,21,12.60
2014,09,15,07,22,12.60
2014,09,15,07,23,12.60
2014,09,15,07,24,12.70
2014,09,15,07,25,12.80
2014,09,15,07,26,12.80
2014,09,15,07,27,12.90
2014,09,15,07,28,12.90
2014,09,15,07,29,13.00
2014,09,15,07,30,13.00
2014,09,15,07,31,13.10
2014,09,15,07,32,13.10
2014,09,15,07,33,13.10
2014,09,15,07,34,13.20
2014,09,15,07,35,13.20
2014,09,15,07,36,13.30
2014,09,15,07,37,13.40
2014,09,15,07,38,13.50
2014,09,15,07,39,13.60
2014,09,15,07,40,13.60
2014,09,15,07,41,13.70
2014,09,15,07,42,13.70
2014,09,15,07,43,13.80
2014,09,15,07,44,13.80
2014,09,15,07,45,13.90
2014,09,15,07,46,13.90
2014,09,15,07,47,13.90
2014,09,15,07,48,14.00
2014,09,15,07,49,14.00
2014,09,15,07,50,14.10
2014,09,15,07,51,14.20
2014,09,15,07,52,14.30
2014,09,15,07,53,14.40
2014,09,15,07,54,14.50
2014,09,15,07,55,14.60
2014,09,15,07,56,14.70
2014,09,15,07,57,14.80
2014,09,15,07,58,14.80
2014,09,15,07,59,14.90
2014,09,15,08,00,14.90
2014,09,15,08,01,15.00
2014,09,15,08,02,15.00
2014,09,15,08,03,15.10
2014,09,15,08,04,15.10
2014,09,15,08,05,15.20
2014,09,15,08,06,15.30
2014,09,15,08,07,15.30
2014,09,15,08,08,15.40
2014,09,15,08,09,15.40
2014,09,15,08,10,15.50
2014,09,15,08,11,15.50
2014,09,15,08,12,15.50
2014,09,15,08,13,15.60
2014,09,15,08,14,15.60
2014,09,15,08,15,15.60
2014,09,15,08,16,15.60
2014,09,15,08,17,15.70
2014,09,15,08,18,15.70
2014,09,15,08,19,15.70
2014,09,15,08,20,15.70
2014,09,15,08,21,15.70
2014,09,15,08,22,15.70
2014,09,15,08,23,15.60
2014,09,15,08,24,15.60
2014,09,15,08,25,15.60
2014,09,15,08,26,15.60
2014,09,15,08,27,15.60
2014,09,15,08,28,15.60
2014,09,15,08,29,15.60
2014,09,15,08,30,15.50
2014,09,15,08,31,15.50
2014,09,15,08,32,15.50
2014,09,15,08,33,15.50
2014,09,15,08,34,15.50
2014,09,15,08,35,15.50
2014,09,15,08,36,15.40
2014,09,15,08,37,15.40
2014,09,15,08,38,15.40
2014,09,15,08,39,15.40
2014,09,15,08,40,15.40
2014,09,15,08,41,15.50
2014,09,15,08,42,15.50
2014,09,15,08,43,15.50
2014,09,15,08,44,15.50
2014,09,15,08,45,15.50
2014,09,15,08,46,15.60
2014,09,15,08,47,15.60
2014,09,15,08,48,15.60
2014,09,15,08,49,15.70
2014,09,15,08,50,15.70
2014,09,15,08,51,15.70
2014,09,15,08,52,15.70
2014,09,15,08,53,15.70
2014,09,15,08,54,15.80
2014,09,15,08,55,15.80
2014,09,15,08,56,15.80
2014,09,15,08,57,15.90
2014,09,15,08,58,16.00
2014,09,15,08,59,16.10
2014,09,15,09,00,16.10
2014,09,15,09,01,16.20
2014,09,15,09,02,16.30
2014,09,15,09,03,16.30
2014,09,15,09,04,16.40
2014,09,15,09,05,16.40
2014,09,15,09,06,16.60
2014,09,15,09,07,16.60
2014,09,15,09,08,16.70
2014,09,15,09,09,16.70
2014,09,15,09,10,16.80
2014,09,15,09,11,16.80
2014,09,15,09,12,16.90
2014,09,15,09,13,16.90
2014,09,15,09,14,16.90
2014,09,15,09,15,17.00
2014,09,15,09,16,17.00
2014,09,15,09,17,17.10
2014,09,15,09,18,17.10
2014,09,15,09,19,17.10
2014,09,15,09,20,17.20
2014,09,15,09,21,17.20
2014,09,15,09,22,17.20
2014,09,15,09,23,17.20
2014,09,15,09,24,17.30
2014,09,15,09,25,17.30
2014,09,15,09,26,17.30
2014,09,15,09,27,17.30
2014,09,15,09,28,17.30
2014,09,15,09,29,17.40
2014,09,15,09,30,17.50
2014,09,15,09,31,17.60
2014,09,15,09,32,17.70
2014,09,15,09,33,17.70
2014,09,15,09,34,17.80
2014,09,15,09,35,17.90
2014,09,15,09,36,17.90
2014,09,15,09,37,18.00
2014,09,15,09,38,18.10
2014,09,15,09,39,18.20
2014,09,15,09,40,18.20
2014,09,15,09,41,18.20
2014,09,15,09,42,18.20
2014,09,15,09,43,18.20
2014,09,15,09,44,18.30
2014,09,15,09,45,18.30
2014,09,15,09,46,18.40
2014,09,15,09,47,18.40
2014,09,15,09,48,18.50
2014,09,15,09,49,18.50
2014,09,15,09,50,18.60
2014,09,15,09,51,18.60
2014,09,15,09,52,18.70
2014,09,15,09,53,18.70
2014,09,15,09,54,18.70
2014,09,15,09,55,18.70
2014,09,15,09,56,18.70
2014,09,15,09,57,18.70
2014,09,15,09,58,18.70
2014,09,15,09,59,18.70
2014,09,15,10,00,18.70
2014,09,15,10,01,18.80
2014,09,15,10,02,18.80
2014,09,15,10,03,18.80
2014,09,15,10,04,18.80
2014,09,15,10,05,18.80
2014,09,15,10,06,18.80
2014,09,15,10,07,18.80
2014,09,15,10,08,18.80
2014,09,15,10,09,18.90
2014,09,15,10,10,18.90
2014,09,15,10,11,18.90
2014,09,15,10,12,18.90
2014,09,15,10,13,19.00
2014,09,15,10,14,19.10
2014,09,15,10,15,19.10
2014,09,15,10,16,19.10
2014,09,15,10,17,19.10
2014,09,15,10,18,19.10
2014,09,15,10,19,19.10
2014,09,15,10,20,19.20
2014,09,15,10,21,19.20
2014,09,15,10,22,19.20
2014,09,15,10,23,19.20
2014,09,15,10,24,19.20
2014,09,15,10,25,19.30
2014,09,15,10,26,19.30
2014,09,15,10,27,19.30
2014,09,15,10,28,19.30
2014,09,15,10,29,19.40
2014,09,15,10,30,19.40
2014,09,15,10,31,19.40
2014,09,15,10,32,19.50
2014,09,15,10,33,19.50
2014,09,15,10,34,19.50
2014,09,15,10,35,19.60
2014,09,15,10,36,19.60
2014,09,15,10,37,19.60
2014,09,15,10,38,19.60
2014,09,15,10,39,19.60
2014,09,15,10,40,19.60
2014,09,15,10,41,19.60
2014,09,15,10,42,19.60
2014,09,15,10,43,19.70
2014,09,15,10,44,19.70
2014,09,15,10,45,19.70
2014,09,15,10,46,19.80
2014,09,15,10,47,19.80
2014,09,15,10,48,19.80
2014,09,15,10,49,19.80
2014,09,15,10,50,19.80
2014,09,15,10,51,19.90
2014,09,15,10,52,19.90
2014,09,15,10,53,19.90
2014,09,15,10,54,19.90
2014,09,15,10,55,19.90
2014,09,15,10,56,19.80
2014,09,15,10,57,19.80
2014,09,15,10,58,19.80
2014,09,15,10,59,19.80
2014,09,15,11,00,19.80
2014,09,15,11,01,19.90
2014,09,15,11,02,20.00
2014,09,15,11,03,20.10
2014,09,15,11,04,20.10
2014,09,15,11,05,20.10
2014,09,15,11,06,20.20
2014,09,15,11,07,20.20
2014,09,15,11,08,20.20
2014,09,15,11,09,20.20
2014,09,15,11,10,20.10
2014,09,15,11,11,20.10
2014,09,15,11,12,20.20
2014,09,15,11,13,20.20
2014,09,15,11,14,20.20
2014,09,15,11,15,20.30
2014,09,15,11,16,20.30
2014,09,15,11,17,20.40
2014,09,15,11,18,20.30
2014,09,15,11,19,20.30
2014,09,15,11,20,20.30
2014,09,15,11,21,20.20
2014,09,15,11,22,20.20
2014,09,15,11,23,20.20
2014,09,15,11,24,20.20
2014,09,15,11,25,20.10
2014,09,15,11,26,20.20
2014,09,15,11,27,20.20
2014,09,15,11,28,20.20
2014,09,15,11,29,20.20
2014,09,15,11,30,20.20
2014,09,15,11,31,20.20
2014,09,15,11,32,20.20
2014,09,15,11,33,20.20
2014,09,15,11,34,20.20
2014,09,15,11,35,20.20
2014,09,15,11,36,20.20
2014,09,15,11,37,20.20
2014,09,15,11,38,20.10
2014,09,15,11,39,20.10
2014,09,15,11,40,20.10
2014,09,15,11,41,20.20
2014,09,15,11,42,20.20
2014,09,15,11,43,20.20
2014,09,15,11,44,20.20
2014,09,15,11,45,20.30
2014,09,15,11,46,20.40
2014,09,15,11,47,20.40
2014,09,15,11,48,20.50
2014,09,15,11,49,20.50
2014,09,15,11,50,20.50
2014,09,15,11,51,20.60
2014,09,15,11,52,20.60
2014,09,15,11,53,20.60
2014,09,15,11,54,20.70
2014,09,15,11,55,20.70
2014,09,15,11,56,20.80
2014,09,15,11,57,20.80
2014,09,15,11,58,20.90
2014,09,15,11,59,21.00
2014,09,15,12,00,21.00
2014,09,15,12,01,21.10
2014,09,15,12,02,21.20
2014,09,15,12,03,21.30
2014,09,15,12,04,21.30
2014,09,15,12,05,21.30
2014,09,15,12,06,21.30
2014,09,15,12,07,21.30
2014,09,15,12,08,21.30
2014,09,15,12,09,21.30
2014,09,15,12,10,21.30
2014,09,15,12,11,21.30
2014,09,15,12,12,21.30
2014,09,15,12,13,21.30
2014,09,15,12,14,21.20
2014,09,15,12,15,21.10
2014,09,15,12,16,21.10
2014,09,15,12,17,21.00
2014,09,15,12,18,20.90
2014,09,15,12,19,20.90
2014,09,15,12,20,20.90
2014,09,15,12,21,20.90
2014,09,15,12,22,20.80
2014,09,15,12,23,20.90
2014,09,15,12,24,20.90
2014,09,15,12,25,20.90
2014,09,15,12,26,21.00
2014,09,15,12,27,21.10
2014,09,15,12,28,21.20
2014,09,15,12,29,21.30
2014,09,15,12,30,21.30
2014,09,15,12,31,21.30
2014,09,15,12,32,21.30
2014,09,15,12,33,21.30
2014,09,15,12,34,21.40
2014,09,15,12,35,21.40
2014,09,15,12,36,21.50
2014,09,15,12,37,21.60
2014,09,15,12,38,21.60
2014,09,15,12,39,21.60
2014,09,15,12,40,21.70
2014,09,15,12,41,21.70
2014,09,15,12,42,21.70
2014,09,15,12,43,21.70
2014,09,15,12,44,21.60
2014,09,15,12,45,21.60
2014,09,15,12,46,21.60
2014,09,15,12,47,21.70
2014,09,15,12,48,21.80
2014,09,15,12,49,21.80
2014,09,15,12,50,21.90
2014,09,15,12,51,21.90
2014,09,15,12,52,22.00
2014,09,15,12,53,22.00
2014,09,15,12,54,22.10
2014,09,15,12,55,22.10
2014,09,15,12,56,22.10
2014,09,15,12,57,22.10
2014,09,15,12,58,22.10
2014,09,15,12,59,22.10
2014,09,15,13,00,22.10
2014,09,15,13,01,22.10
2014,09,15,13,02,22.00
2014,09,15,13,03,22.00
2014,09,15,13,04,21.90
2014,09,15,13,05,21.80
2014,09,15,13,06,21.80
2014,09,15,13,07,21.70
2014,09,15,13,08,21.80
2014,09,15,13,09,21.90
2014,09,15,13,10,22.00
2014,09,15,13,11,22.00
2014,09,15,13,12,22.00
2014,09,15,13,13,22.10
2014,09,15,13,14,22.20
2014,09,15,13,15,22.20
2014,09,15,13,16,22.20
2014,09,15,13,17,22.20
2014,09,15,13,18,22.20
2014,09,15,13,19,22.30
2014,09,15,13,20,22.30
2014,09,15,13,21,22.30
2014,09,15,13,22,22.30
2014,09,15,13,23,22.40
2014,09,15,13,24,22.40
2014,09,15,13,25,22.40
2014,09,15,13,26,22.50
2014,09,15,13,27,22.50
2014,09,15,13,28,22.50
2014,09,15,13,29,22.60
2014,09,15,13,30,22.60
2014,09,15,13,31,22.60
2014,09,15,13,32,22.60
2014,09,15,13,33,22.60
2014,09,15,13,34,22.60
2014,09,15,13,35,22.60
2014,09,15,13,36,22.60
2014,09,15,13,37,22.70
2014,09,15,13,38,22.70
2014,09,15,13,39,22.80
2014,09,15,13,40,22.80
2014,09,15,13,41,22.90
2014,09,15,13,42,22.90
2014,09,15,13,43,22.90
2014,09,15,13,44,22.90
2014,09,15,13,45,23.00
2014,09,15,13,46,23.10
2014,09,15,13,47,23.10
2014,09,15,13,48,22.90
2014,09,15,13,49,23.00
2014,09,15,13,50,22.90
2014,09,15,13,51,22.90
2014,09,15,13,52,22.90
2014,09,15,13,53,22.90
2014,09,15,13,54,22.90
2014,09,15,13,55,22.90
2014,09,15,13,56,22.90
2014,09,15,13,57,22.90
2014,09,15,13,58,22.90
2014,09,15,13,59,22.90
2014,09,15,14,00,22.90
2014,09,15,14,01,22.80
2014,09,15,14,02,22.80
2014,09,15,14,03,22.70
2014,09,15,14,04,22.70
2014,09,15,14,05,22.70
2014,09,15,14,06,22.70
2014,09,15,14,07,22.70
2014,09,15,14,08,22.80
2014,09,15,14,09,22.80
2014,09,15,14,10,22.90
2014,09,15,14,11,22.90
2014,09,15,14,12,22.90
2014,09,15,14,13,22.90
2014,09,15,14,14,23.00
2014,09,15,14,15,23.10
2014,09,15,14,16,23.20
2014,09,15,14,17,23.20
2014,09,15,14,18,23.30
2014,09,15,14,19,23.30
2014,09,15,14,20,23.40
2014,09,15,14,21,23.50
2014,09,15,14,22,23.60
2014,09,15,14,23,23.70
2014,09,15,14,24,23.70
2014,09,15,14,25,23.70
2014,09,15,14,26,23.70
2014,09,15,14,27,23.80
2014,09,15,14,28,23.80
2014,09,15,14,29,23.80
2014,09,15,14,30,23.80
2014,09,15,14,31,23.80
2014,09,15,14,32,23.90
2014,09,15,14,33,23.90
2014,09,15,14,34,23.90
2014,09,15,14,35,23.90
2014,09,15,14,36,23.90
2014,09,15,14,37,23.90
2014,09,15,14,38,23.90
2014,09,15,14,39,23.90
2014,09,15,14,40,23.90
2014,09,15,14,41,23.90
2014,09,15,14,42,23.90
2014,09,15,14,43,23.90
2014,09,15,14,44,23.80
2014,09,15,14,45,23.80
2014,09,15,14,46,23.80
2014,09,15,14,47,23.80
2014,09,15,14,48,23.80
2014,09,15,14,49,23.90
2014,09,15,14,50,23.90
2014,09,15,14,51,23.90
2014,09,15,14,52,24.00
2014,09,15,14,53,24.10
2014,09,15,14,54,24.10
2014,09,15,14,55,24.10
2014,09,15,14,56,24.10
2014,09,15,14,57,24.20
2014,09,15,14,58,24.20
2014,09,15,14,59,24.30
2014,09,15,15,00,24.30
2014,09,15,15,01,24.40
2014,09,15,15,02,24.40
2014,09,15,15,03,24.40
2014,09,15,15,04,24.50
2014,09,15,15,05,24.50
2014,09,15,15,06,24.50
2014,09,15,15,07,24.50
2014,09,15,15,08,24.50
2014,09,15,15,09,24.50
2014,09,15,15,10,24.60
2014,09,15,15,11,24.60
2014,09,15,15,12,24.60
2014,09,15,15,13,24.60
2014,09,15,15,14,24.60
2014,09,15,15,15,24.60
2014,09,15,15,16,24.70
2014,09,15,15,17,24.70
2014,09,15,15,18,24.70
2014,09,15,15,19,24.80
2014,09,15,15,20,24.90
2014,09,15,15,21,24.90
2014,09,15,15,22,25.00
2014,09,15,15,23,25.00
2014,09,15,15,24,25.10
2014,09,15,15,25,25.10
2014,09,15,15,26,25.20
2014,09,15,15,27,25.20
2014,09,15,15,28,25.20
2014,09,15,15,29,25.20
2014,09,15,15,30,25.20
2014,09,15,15,31,25.20
2014,09,15,15,32,25.30
2014,09,15,15,33,25.30
2014,09,15,15,34,25.30
2014,09,15,15,35,25.30
2014,09,15,15,36,25.30
2014,09,15,15,37,25.30
2014,09,15,15,38,25.30
2014,09,15,15,39,25.20
2014,09,15,15,40,25.20
2014,09,15,15,41,25.20
2014,09,15,15,42,25.20
2014,09,15,15,43,25.30
2014,09,15,15,44,25.30
2014,09,15,15,45,25.40
2014,09,15,15,46,25.40
2014,09,15,15,47,25.30
2014,09,15,15,48,25.30
2014,09,15,15,49,25.30
2014,09,15,15,50,25.30
2014,09,15,15,51,25.30
2014,09,15,15,52,25.30
2014,09,15,15,53,25.30
2014,09,15,15,54,25.20
2014,09,15,15,55,25.20
2014,09,15,15,56,25.20
2014,09,15,15,57,25.20
2014,09,15,15,58,25.20
2014,09,15,15,59,25.30
2014,09,15,16,00,25.30
2014,09,15,16,01,25.30
2014,09,15,16,02,25.30
2014,09,15,16,03,25.30
2014,09,15,16,04,25.40
2014,09,15,16,05,25.30
2014,09,15,16,06,25.30
2014,09,15,16,07,25.30
2014,09,15,16,08,25.30
2014,09,15,16,09,25.30
2014,09,15,16,10,25.30
2014,09,15,16,11,25.30
2014,09,15,16,12,25.40
2014,09,15,16,13,25.40
2014,09,15,16,14,25.40
2014,09,15,16,15,25.40
2014,09,15,16,16,25.40
2014,09,15,16,17,25.40
2014,09,15,16,18,25.30
2014,09,15,16,19,25.30
2014,09,15,16,20,25.30
2014,09,15,16,21,25.30
2014,09,15,16,22,25.20
2014,09,15,16,23,25.20
2014,09,15,16,24,25.20
2014,09,15,16,25,25.20
2014,09,15,16,26,25.10
2014,09,15,16,27,25.10
2014,09,15,16,28,25.10
2014,09,15,16,29,25.10
2014,09,15,16,30,25.10
2014,09,15,16,31,25.10
2014,09,15,16,32,25.00
2014,09,15,16,33,25.00
2014,09,15,16,34,25.00
2014,09,15,16,35,25.00
2014,09,15,16,36,25.00
2014,09,15,16,37,25.00
2014,09,15,16,38,25.00
2014,09,15,16,39,25.00
2014,09,15,16,40,25.00
2014,09,15,16,41,25.00
2014,09,15,16,42,25.00
2014,09,15,16,43,25.10
2014,09,15,16,44,25.10
2014,09,15,16,45,25.10
2014,09,15,16,46,25.10
2014,09,15,16,47,25.10
2014,09,15,16,48,25.00
2014,09,15,16,49,25.00
2014,09,15,16,50,25.00
2014,09,15,16,51,25.00
2014,09,15,16,52,25.00
2014,09,15,16,53,25.00
2014,09,15,16,54,25.00
2014,09,15,16,55,24.90
2014,09,15,16,56,24.80
2014,09,15,16,57,24.80
2014,09,15,16,58,24.70
2014,09,15,16,59,24.60
2014,09,15,17,00,24.60
2014,09,15,17,01,24.60
2014,09,15,17,02,24.60
2014,09,15,17,03,24.60
2014,09,15,17,04,24.60
2014,09,15,17,05,24.60
2014,09,15,17,06,24.60
2014,09,15,17,07,24.60
2014,09,15,17,08,24.60
2014,09,15,17,09,24.60
2014,09,15,17,10,24.60
2014,09,15,17,11,24.60
2014,09,15,17,12,24.70
2014,09,15,17,13,24.70
2014,09,15,17,14,24.70
2014,09,15,17,15,24.70
2014,09,15,17,16,24.70
2014,09,15,17,17,24.70
2014,09,15,17,18,24.70
2014,09,15,17,19,24.60